CSW129 LEJR-LSZB

Flight info

Callsign CSW129
Flight time N/A
Altitude 36000
Route HIJ N10 VTB N871 TOPTU DCT GAI DCT NOQAS DCT BELUS DCT OMASI N871 SOSAL Z61 FRIBU
Aircraft A320/M-SDE3FGHIRWY/LB1

Departure

Time N/A
Airport Jerez Airport (LEJR)

Arrival

Time 2026-04-26 11:06
Airport Bern Airport (LSZB)
Time Latitude Longitude Altitude Speed Heading
2026-04-26 09:56 42.84929 -0.10327 34192 ft 447 kts 49°
2026-04-26 09:56 42.88876 -0.03769 34199 ft 447 kts 49°
2026-04-26 09:57 42.92771 0.02771 34197 ft 444 kts 50°
2026-04-26 09:57 42.96641 0.09341 34201 ft 444 kts 50°
2026-04-26 09:58 43.00500 0.15935 34200 ft 444 kts 50°
2026-04-26 09:58 43.04350 0.22514 34198 ft 441 kts 50°
2026-04-26 09:59 43.08177 0.29063 34205 ft 440 kts 50°
2026-04-26 09:59 43.11992 0.35603 34202 ft 439 kts 50°
2026-04-26 10:00 43.15804 0.42146 34192 ft 440 kts 50°
2026-04-26 10:00 43.19619 0.48710 34192 ft 441 kts 50°
2026-04-26 10:01 43.23417 0.55263 34202 ft 441 kts 50°
2026-04-26 10:01 43.27224 0.61863 34212 ft 441 kts 50°
2026-04-26 10:02 43.31024 0.68460 34209 ft 441 kts 50°
2026-04-26 10:02 43.34825 0.75069 34206 ft 440 kts 50°
2026-04-26 10:03 43.38627 0.81687 34186 ft 441 kts 50°
2026-04-26 10:03 43.42443 0.88323 34183 ft 442 kts 50°
2026-04-26 10:04 43.46247 0.94979 34217 ft 442 kts 50°
2026-04-26 10:04 43.50035 1.01631 34213 ft 441 kts 50°
2026-04-26 10:05 43.53818 1.08291 34217 ft 441 kts 50°
2026-04-26 10:05 43.57600 1.14946 34205 ft 441 kts 50°
2026-04-26 10:06 43.61384 1.21627 34199 ft 442 kts 50°
2026-04-26 10:06 43.65169 1.28326 34206 ft 443 kts 50°
2026-04-26 10:07 43.68949 1.35032 34211 ft 443 kts 50°
2026-04-26 10:07 43.72724 1.41756 34210 ft 442 kts 50°
2026-04-26 10:08 43.76500 1.48474 34208 ft 442 kts 50°
2026-04-26 10:08 43.80245 1.55161 34205 ft 443 kts 50°
2026-04-26 10:09 43.84017 1.61917 34201 ft 444 kts 50°
2026-04-26 10:09 43.87791 1.68689 34199 ft 444 kts 50°
2026-04-26 10:10 43.91558 1.75468 34197 ft 443 kts 50°
2026-04-26 10:10 43.95317 1.82247 34197 ft 443 kts 50°
2026-04-26 10:11 43.99065 1.89060 34194 ft 444 kts 51°
2026-04-26 10:11 44.02783 1.95907 34198 ft 444 kts 51°
2026-04-26 10:12 44.06499 2.02774 34192 ft 445 kts 51°
2026-04-26 10:12 44.10194 2.09605 34190 ft 445 kts 51°
2026-04-26 10:13 44.13913 2.16484 34192 ft 445 kts 51°
2026-04-26 10:13 44.17637 2.23378 34193 ft 445 kts 51°
2026-04-26 10:14 44.21350 2.30273 34210 ft 445 kts 51°
2026-04-26 10:14 44.25062 2.37194 34189 ft 446 kts 51°
2026-04-26 10:15 44.28780 2.44142 34181 ft 447 kts 51°
2026-04-26 10:15 44.32494 2.51099 34199 ft 447 kts 51°
2026-04-26 10:16 44.36210 2.58082 34204 ft 448 kts 51°
2026-04-26 10:16 44.39923 2.65067 34214 ft 447 kts 51°
2026-04-26 10:17 44.43632 2.72053 34207 ft 448 kts 51°
2026-04-26 10:17 44.47344 2.79067 34189 ft 449 kts 51°
2026-04-26 10:18 44.51056 2.86114 34173 ft 449 kts 52°
2026-04-26 10:18 44.54766 2.93166 34173 ft 450 kts 52°
2026-04-26 10:19 44.58454 3.00182 34185 ft 450 kts 51°
2026-04-26 10:19 44.62163 3.07244 34189 ft 449 kts 52°
2026-04-26 10:20 44.65268 3.13177 34178 ft 450 kts 52°
2026-04-26 10:20 44.69568 3.21433 34167 ft 451 kts 52°
2026-04-26 10:21 44.73269 3.28554 34172 ft 451 kts 52°
2026-04-26 10:21 44.76969 3.35696 34173 ft 452 kts 52°
2026-04-26 10:22 44.80046 3.41639 34172 ft 452 kts 52°
2026-04-26 10:22 44.83744 3.48799 34173 ft 452 kts 52°
2026-04-26 10:23 44.87435 3.55970 34176 ft 452 kts 52°
2026-04-26 10:23 44.91128 3.63145 34177 ft 452 kts 52°
2026-04-26 10:24 44.94808 3.70327 34188 ft 452 kts 52°
2026-04-26 10:24 44.98485 3.77537 34181 ft 452 kts 52°
2026-04-26 10:25 45.02160 3.84745 34202 ft 453 kts 53°
2026-04-26 10:25 45.05842 3.91983 34195 ft 454 kts 53°
2026-04-26 10:26 45.09530 3.99250 34188 ft 455 kts 53°
2026-04-26 10:26 45.13217 4.06537 34191 ft 455 kts 53°
2026-04-26 10:27 45.16900 4.13831 34183 ft 455 kts 53°
2026-04-26 10:27 45.20582 4.21140 34174 ft 456 kts 53°
2026-04-26 10:28 45.23719 4.28941 34173 ft 457 kts 63°
2026-04-26 10:28 45.26497 4.37067 34170 ft 458 kts 63°
2026-04-26 10:29 45.29284 4.45203 34173 ft 458 kts 63°
2026-04-26 10:29 45.32077 4.53348 34182 ft 459 kts 63°
2026-04-26 10:30 45.34859 4.61503 34178 ft 459 kts 63°
2026-04-26 10:30 45.37636 4.69686 34153 ft 460 kts 64°
2026-04-26 10:31 45.40410 4.77896 34154 ft 460 kts 64°
2026-04-26 10:31 45.43169 4.86060 34154 ft 461 kts 64°
2026-04-26 10:32 45.45942 4.94295 34161 ft 461 kts 64°
2026-04-26 10:32 45.48713 5.02538 34172 ft 462 kts 64°
2026-04-26 10:33 45.51474 5.10807 34164 ft 462 kts 64°
2026-04-26 10:33 45.54228 5.19098 34167 ft 463 kts 64°
2026-04-26 10:34 45.56992 5.27401 34168 ft 463 kts 64°
2026-04-26 10:34 45.59754 5.35707 34167 ft 463 kts 64°
2026-04-26 10:35 45.62499 5.44026 34170 ft 463 kts 64°
2026-04-26 10:35 45.65232 5.52361 34159 ft 463 kts 65°
2026-04-26 10:36 45.68297 5.60439 34157 ft 462 kts 53°
2026-04-26 10:36 45.72442 5.67428 34152 ft 461 kts 47°
2026-04-26 10:37 45.76669 5.74360 34153 ft 462 kts 48°
2026-04-26 10:37 45.80890 5.81301 34153 ft 462 kts 48°
2026-04-26 10:38 45.85070 5.88201 34160 ft 462 kts 48°
2026-04-26 10:38 45.89281 5.95192 34113 ft 462 kts 48°
2026-04-26 10:39 45.91483 5.98538 33837 ft 462 kts 41°
2026-04-26 10:39 45.93867 6.01624 33558 ft 462 kts 41°
2026-04-26 10:39 45.96263 6.04722 33280 ft 463 kts 41°
2026-04-26 10:39 45.98656 6.07818 33017 ft 463 kts 41°
2026-04-26 10:40 46.01046 6.10917 32762 ft 462 kts 41°
2026-04-26 10:40 46.03430 6.14020 32499 ft 461 kts 41°
2026-04-26 10:40 46.05795 6.17111 32238 ft 459 kts 41°
2026-04-26 10:40 46.08153 6.20197 31979 ft 457 kts 41°
2026-04-26 10:41 46.10497 6.23263 31743 ft 456 kts 41°
2026-04-26 10:41 46.12853 6.26343 31487 ft 454 kts 41°
2026-04-26 10:41 46.15191 6.29399 31235 ft 453 kts 41°
2026-04-26 10:41 46.17519 6.32445 30986 ft 451 kts 41°
2026-04-26 10:42 46.19839 6.35484 30736 ft 450 kts 41°
2026-04-26 10:42 46.22149 6.38516 30497 ft 448 kts 41°
2026-04-26 10:42 46.24448 6.41541 30251 ft 445 kts 41°
2026-04-26 10:42 46.26724 6.44540 29844 ft 440 kts 41°
2026-04-26 10:43 46.28973 6.47508 29288 ft 436 kts 41°
2026-04-26 10:43 46.31200 6.50451 28754 ft 432 kts 41°
2026-04-26 10:43 46.33380 6.53333 28240 ft 428 kts 41°
2026-04-26 10:43 46.35568 6.56229 27707 ft 424 kts 41°
2026-04-26 10:44 46.37737 6.59100 27209 ft 421 kts 41°
2026-04-26 10:44 46.39890 6.61951 26708 ft 418 kts 41°
2026-04-26 10:44 46.42026 6.64786 26223 ft 415 kts 41°
2026-04-26 10:44 46.44125 6.67626 25750 ft 411 kts 45°
2026-04-26 10:45 46.45976 6.70771 25287 ft 409 kts 50°
2026-04-26 10:45 46.47752 6.73977 24824 ft 406 kts 50°
2026-04-26 10:45 46.49519 6.77151 24356 ft 404 kts 50°
2026-04-26 10:45 46.51280 6.80305 23904 ft 401 kts 50°
2026-04-26 10:46 46.53036 6.83450 23407 ft 399 kts 50°
2026-04-26 10:46 46.54776 6.86569 22934 ft 395 kts 50°
2026-04-26 10:46 46.56518 6.89632 22475 ft 392 kts 48°
2026-04-26 10:46 46.58329 6.92572 22027 ft 388 kts 46°
2026-04-26 10:47 46.60182 6.95411 21571 ft 386 kts 45°
2026-04-26 10:47 46.62049 6.98198 21100 ft 383 kts 45°
2026-04-26 10:47 46.63905 7.00965 20639 ft 381 kts 45°
2026-04-26 10:47 46.65740 7.03729 20174 ft 379 kts 45°
2026-04-26 10:48 46.67559 7.06504 19706 ft 377 kts 45°
2026-04-26 10:48 46.69358 7.09274 19237 ft 376 kts 46°
2026-04-26 10:48 46.71146 7.12045 18780 ft 374 kts 46°
2026-04-26 10:48 46.72927 7.14811 18294 ft 373 kts 46°
2026-04-26 10:49 46.74674 7.17527 17828 ft 370 kts 46°
2026-04-26 10:49 46.76434 7.20246 17366 ft 367 kts 42°
2026-04-26 10:49 46.78410 7.22564 16921 ft 362 kts 30°
2026-04-26 10:49 46.80636 7.24232 16482 ft 358 kts 21°
2026-04-26 10:50 46.82907 7.25691 16046 ft 355 kts 22°
2026-04-26 10:50 46.84397 7.26651 15766 ft 353 kts 22°
2026-04-26 10:50 46.87394 7.28588 15189 ft 351 kts 23°
2026-04-26 10:50 46.89616 7.30031 14762 ft 349 kts 22°
2026-04-26 10:51 46.91830 7.31473 14332 ft 347 kts 22°
2026-04-26 10:51 46.96213 7.34341 13430 ft 343 kts 22°
2026-04-26 10:51 46.98379 7.35752 12991 ft 339 kts 22°
2026-04-26 10:52 47.00528 7.37142 12558 ft 336 kts 23°
2026-04-26 10:52 47.02627 7.38590 12218 ft 331 kts 31°
2026-04-26 10:52 47.04192 7.40948 12187 ft 325 kts 60°
2026-04-26 10:52 47.04771 7.44124 12188 ft 326 kts 90°
2026-04-26 10:53 47.04566 7.47457 12160 ft 329 kts 93°
2026-04-26 10:53 47.04811 7.50771 11703 ft 327 kts 70°
2026-04-26 10:53 47.05915 7.53641 11256 ft 321 kts 46°
2026-04-26 10:54 47.09737 7.56237 10427 ft 298 kts 358°
2026-04-26 10:54 47.11733 7.55682 9861 ft 291 kts 339°
2026-04-26 10:54 47.13403 7.54102 9290 ft 285 kts 313°
2026-04-26 10:54 47.14405 7.51668 8686 ft 284 kts 290°
2026-04-26 10:55 47.14635 7.48787 8013 ft 282 kts 262°
2026-04-26 10:55 47.13952 7.46122 7407 ft 279 kts 233°
2026-04-26 10:55 47.12612 7.44083 6845 ft 280 kts 220°
2026-04-26 10:55 47.11630 7.42851 6558 ft 281 kts 219°
2026-04-26 10:56 47.09657 7.40426 6064 ft 278 kts 218°
2026-04-26 10:56 47.08170 7.38601 6006 ft 279 kts 217°
2026-04-26 10:56 47.06491 7.37223 6005 ft 277 kts 195°
2026-04-26 10:56 47.04597 7.36886 6007 ft 273 kts 174°
2026-04-26 10:57 47.02717 7.37294 5983 ft 273 kts 168°
2026-04-26 10:57 47.00842 7.37736 5985 ft 273 kts 169°
2026-04-26 10:57 46.98965 7.38164 5981 ft 272 kts 168°
2026-04-26 10:57 46.97090 7.38587 5989 ft 273 kts 168°
2026-04-26 10:58 46.95217 7.39009 5980 ft 272 kts 170°
2026-04-26 10:58 46.93341 7.39431 5984 ft 273 kts 170°
2026-04-26 10:58 46.91464 7.39850 5984 ft 274 kts 170°
2026-04-26 10:58 46.89581 7.40271 5981 ft 274 kts 170°
2026-04-26 10:59 46.87702 7.40693 5981 ft 274 kts 169°
2026-04-26 10:59 46.85867 7.41405 5977 ft 272 kts 156°
2026-04-26 10:59 46.84207 7.42706 5979 ft 271 kts 143°
2026-04-26 10:59 46.82742 7.44445 5982 ft 271 kts 139°
2026-04-26 11:00 46.81299 7.46216 5982 ft 271 kts 139°
2026-04-26 11:00 46.79849 7.47983 5978 ft 271 kts 139°
2026-04-26 11:00 46.78407 7.49753 5981 ft 267 kts 136°
2026-04-26 11:00 46.77252 7.51736 6001 ft 248 kts 121°
2026-04-26 11:01 46.76414 7.53841 6007 ft 233 kts 119°
2026-04-26 11:01 46.75650 7.55888 6002 ft 228 kts 111°
2026-04-26 11:01 46.75315 7.58122 6008 ft 227 kts 90°
2026-04-26 11:01 46.75532 7.60381 6003 ft 225 kts 71°
2026-04-26 11:02 46.76249 7.62371 6006 ft 226 kts 51°
2026-04-26 11:02 46.77433 7.63891 5869 ft 228 kts 30°
2026-04-26 11:02 46.78941 7.64464 5583 ft 228 kts 354°
2026-04-26 11:02 46.80377 7.63537 5220 ft 232 kts 323°
2026-04-26 11:03 46.81651 7.62068 4809 ft 230 kts 320°
2026-04-26 11:03 46.82827 7.60554 4430 ft 221 kts 319°
2026-04-26 11:03 46.83944 7.59083 4031 ft 212 kts 319°
2026-04-26 11:03 46.85020 7.57688 3689 ft 202 kts 318°
2026-04-26 11:04 46.86062 7.56361 3298 ft 193 kts 319°
2026-04-26 11:04 46.87040 7.55133 2987 ft 177 kts 319°
2026-04-26 11:04 46.87937 7.54018 2695 ft 163 kts 320°
2026-04-26 11:04 46.88772 7.52975 2375 ft 153 kts 320°
2026-04-26 11:05 46.89525 7.51994 2109 ft 142 kts 322°
2026-04-26 11:05 46.90272 7.51093 1862 ft 138 kts 322°
2026-04-26 11:05 46.91004 7.50217 1711 ft 125 kts 320°
2026-04-26 11:05 46.91546 7.49556 1684 ft 77 kts 319°
2026-04-26 11:06 46.91832 7.49204 1681 ft 36 kts 320°
2026-04-26 11:06 46.91913 7.49103 1680 ft 15 kts 316°
2026-04-26 11:06 46.91949 7.49073 1682 ft 2 kts 129°
2026-04-26 11:06 46.91908 7.49115 1680 ft 13 kts 145°
2026-04-26 11:07 46.91825 7.49219 1681 ft 16 kts 137°
2026-04-26 11:07 46.91747 7.49313 1685 ft 14 kts 142°
2026-04-26 11:07 46.91673 7.49398 1681 ft 14 kts 141°
2026-04-26 11:07 46.91596 7.49491 1681 ft 17 kts 140°
2026-04-26 11:08 46.91481 7.49631 1680 ft 24 kts 140°
2026-04-26 11:08 46.91395 7.49736 1684 ft 24 kts 140°
2026-04-26 11:08 46.91265 7.49896 1681 ft 19 kts 140°
2026-04-26 11:08 46.91276 7.50006 1689 ft 11 kts 66°
2026-04-26 11:09 46.91262 7.50070 1714 ft 5 kts 72°
2026-04-26 11:09 46.91273 7.50114 1713 ft 5 kts 81°
2026-04-26 11:09 46.91273 7.50124 1712 ft 0 kts 93°